CSN305 ZGGG-NZAA

Flight info

Callsign CSN305
Flight time N/A
Altitude 24600
Route VIBOS9 VIBOS R473 SIERA/N0498F350 DCT MULET DCT NOMAN A461 AVMUP W16 MIA B462 MASBA/N0496F370 B462 BIK G459 AGIGU/N0487F390 G459 WP B473 CS Y177 AKROM Z25 ALBUX W112 OVRON A346 TEKEP/N0479F410 A346 SALAG BASIV9B
Aircraft A359/H-SDE1E2E3FGHIJ3J4J5M1RWXY/LB2

Departure

Time 2026-05-06 16:34
Airport Guangzhou Baiyun International Airport (ZGGG)

Arrival

Time N/A
Airport Auckland International Airport (NZAA)
Time Latitude Longitude Altitude Speed Heading
2026-05-06 15:48 23.40178 113.30162 60 ft 0 kts 194°
2026-05-06 16:14 23.40195 113.30167 55 ft 4 kts 194°
2026-05-06 16:14 23.40220 113.30173 55 ft 3 kts 193°
2026-05-06 16:15 23.40244 113.30174 59 ft 4 kts 149°
2026-05-06 16:15 23.40261 113.30154 58 ft 4 kts 111°
2026-05-06 16:15 23.40268 113.30131 55 ft 0 kts 104°
2026-05-06 16:20 23.40266 113.30137 59 ft 4 kts 104°
2026-05-06 16:20 23.40256 113.30172 55 ft 5 kts 108°
2026-05-06 16:21 23.40248 113.30213 55 ft 6 kts 102°
2026-05-06 16:21 23.40238 113.30261 64 ft 8 kts 104°
2026-05-06 16:21 23.40237 113.30323 62 ft 9 kts 78°
2026-05-06 16:21 23.40268 113.30379 60 ft 9 kts 47°
2026-05-06 16:22 23.40315 113.30433 59 ft 10 kts 46°
2026-05-06 16:22 23.40356 113.30496 56 ft 10 kts 76°
2026-05-06 16:22 23.40346 113.30571 56 ft 10 kts 103°
2026-05-06 16:22 23.40328 113.30649 57 ft 11 kts 104°
2026-05-06 16:23 23.40309 113.30732 60 ft 12 kts 104°
2026-05-06 16:23 23.40291 113.30813 58 ft 8 kts 104°
2026-05-06 16:23 23.40260 113.30853 55 ft 6 kts 169°
2026-05-06 16:23 23.40220 113.30847 59 ft 6 kts 192°
2026-05-06 16:24 23.40174 113.30835 59 ft 8 kts 194°
2026-05-06 16:24 23.40106 113.30817 60 ft 11 kts 194°
2026-05-06 16:24 23.40027 113.30795 56 ft 14 kts 194°
2026-05-06 16:24 23.39930 113.30769 59 ft 15 kts 194°
2026-05-06 16:25 23.39832 113.30743 58 ft 15 kts 194°
2026-05-06 16:25 23.39731 113.30715 60 ft 15 kts 194°
2026-05-06 16:25 23.39627 113.30687 57 ft 15 kts 194°
2026-05-06 16:25 23.39522 113.30659 56 ft 16 kts 193°
2026-05-06 16:26 23.39414 113.30630 58 ft 16 kts 194°
2026-05-06 16:26 23.39305 113.30601 57 ft 16 kts 194°
2026-05-06 16:26 23.39194 113.30570 56 ft 17 kts 194°
2026-05-06 16:26 23.39081 113.30539 60 ft 17 kts 194°
2026-05-06 16:27 23.39044 113.30530 55 ft 2 kts 193°
2026-05-06 16:27 23.39013 113.30522 57 ft 6 kts 193°
2026-05-06 16:27 23.38977 113.30528 58 ft 5 kts 148°
2026-05-06 16:27 23.38963 113.30560 56 ft 5 kts 107°
2026-05-06 16:28 23.38918 113.30595 56 ft 13 kts 178°
2026-05-06 16:28 23.38898 113.30594 60 ft 0 kts 189°
2026-05-06 16:28 23.38896 113.30593 59 ft 2 kts 197°
2026-05-06 16:28 23.38858 113.30581 55 ft 6 kts 195°
2026-05-06 16:29 23.38812 113.30568 56 ft 7 kts 194°
2026-05-06 16:29 23.38753 113.30552 58 ft 13 kts 194°
2026-05-06 16:29 23.38629 113.30518 55 ft 20 kts 193°
2026-05-06 16:29 23.38491 113.30481 60 ft 20 kts 194°
2026-05-06 16:30 23.38357 113.30444 60 ft 20 kts 194°
2026-05-06 16:30 23.38264 113.30420 58 ft 20 kts 194°
2026-05-06 16:30 23.38083 113.30371 56 ft 20 kts 194°
2026-05-06 16:30 23.37945 113.30333 60 ft 20 kts 194°
2026-05-06 16:31 23.37859 113.30310 58 ft 0 kts 194°
2026-05-06 16:31 23.37798 113.30294 59 ft 18 kts 194°
2026-05-06 16:31 23.37680 113.30263 56 ft 12 kts 187°
2026-05-06 16:31 23.37633 113.30302 57 ft 9 kts 102°
2026-05-06 16:32 23.37620 113.30368 61 ft 9 kts 103°
2026-05-06 16:32 23.37607 113.30427 58 ft 8 kts 103°
2026-05-06 16:32 23.37592 113.30491 58 ft 9 kts 104°
2026-05-06 16:32 23.37610 113.30541 60 ft 7 kts 33°
2026-05-06 16:33 23.37655 113.30557 55 ft 9 kts 15°
2026-05-06 16:33 23.37865 113.30614 57 ft 62 kts 14°
2026-05-06 16:33 23.38484 113.30781 58 ft 120 kts 14°
2026-05-06 16:34 23.40617 113.31350 657 ft 168 kts 14°
2026-05-06 16:34 23.41802 113.31685 1069 ft 183 kts 16°
2026-05-06 16:34 23.43087 113.32073 1316 ft 201 kts 17°
2026-05-06 16:34 23.44495 113.32498 1469 ft 221 kts 17°
2026-05-06 16:35 23.46048 113.32965 1644 ft 241 kts 17°
2026-05-06 16:35 23.47704 113.33460 2056 ft 250 kts 17°
2026-05-06 16:35 23.49392 113.33962 2606 ft 253 kts 16°
2026-05-06 16:35 23.51100 113.34470 3168 ft 255 kts 16°
2026-05-06 16:36 23.52821 113.34983 3718 ft 257 kts 16°
2026-05-06 16:36 23.54556 113.35500 4242 ft 259 kts 15°
2026-05-06 16:36 23.56325 113.35954 4747 ft 263 kts 11°
2026-05-06 16:36 23.58126 113.36312 5277 ft 263 kts
2026-05-06 16:37 23.59926 113.36592 5877 ft 261 kts
2026-05-06 16:37 23.61689 113.36256 6385 ft 257 kts 331°
2026-05-06 16:37 23.63052 113.35033 6769 ft 259 kts 302°
2026-05-06 16:37 23.63709 113.33190 7030 ft 267 kts 278°
2026-05-06 16:38 23.63989 113.31172 7514 ft 271 kts 276°
2026-05-06 16:38 23.64234 113.29155 8071 ft 273 kts 276°
2026-05-06 16:38 23.64495 113.27099 8672 ft 275 kts 276°
2026-05-06 16:38 23.64767 113.25029 9277 ft 276 kts 276°
2026-05-06 16:39 23.65045 113.22950 9855 ft 278 kts 276°
2026-05-06 16:39 23.65236 113.21535 10175 ft 282 kts 276°
2026-05-06 16:39 23.65615 113.18636 10468 ft 301 kts 275°
2026-05-06 16:39 23.65628 113.17077 10563 ft 310 kts 262°
2026-05-06 16:40 23.64887 113.14846 10730 ft 323 kts 236°
2026-05-06 16:40 23.62814 113.12409 10978 ft 340 kts 224°
2026-05-06 16:40 23.61629 113.11209 11095 ft 348 kts 224°
2026-05-06 16:40 23.59757 113.09481 11392 ft 356 kts 216°
2026-05-06 16:41 23.57562 113.08275 11784 ft 362 kts 199°
2026-05-06 16:41 23.55054 113.07850 12202 ft 369 kts 184°
2026-05-06 16:41 23.52439 113.07836 12624 ft 373 kts 181°
2026-05-06 16:41 23.49868 113.07877 13032 ft 376 kts 181°
2026-05-06 16:42 23.47243 113.07914 13436 ft 379 kts 181°
2026-05-06 16:42 23.44596 113.07949 13831 ft 381 kts 182°
2026-05-06 16:42 23.41935 113.07969 14188 ft 384 kts 182°
2026-05-06 16:42 23.39256 113.07986 14546 ft 386 kts 182°
2026-05-06 16:43 23.36562 113.08002 14905 ft 388 kts 182°
2026-05-06 16:43 23.33856 113.08017 15257 ft 390 kts 182°
2026-05-06 16:43 23.31136 113.08033 15604 ft 392 kts 182°
2026-05-06 16:43 23.28394 113.08055 15949 ft 395 kts 181°
2026-05-06 16:44 23.25652 113.08432 16269 ft 402 kts 167°
2026-05-06 16:44 23.23000 113.09462 16613 ft 406 kts 160°
2026-05-06 16:44 23.20388 113.10656 16951 ft 409 kts 160°
2026-05-06 16:44 23.17767 113.11869 17322 ft 410 kts 160°
2026-05-06 16:45 23.15136 113.13080 17684 ft 412 kts 160°
2026-05-06 16:45 23.12491 113.14291 18001 ft 414 kts 160°
2026-05-06 16:45 23.09827 113.15507 18318 ft 416 kts 160°
2026-05-06 16:45 23.07150 113.16727 18590 ft 419 kts 160°
2026-05-06 16:46 23.04456 113.17953 18877 ft 421 kts 160°
2026-05-06 16:46 23.01746 113.19186 19154 ft 423 kts 160°
2026-05-06 16:46 22.98980 113.20271 19431 ft 423 kts 166°
2026-05-06 16:46 22.96162 113.21203 19708 ft 424 kts 166°
2026-05-06 16:47 22.93330 113.22137 19985 ft 426 kts 166°
2026-05-06 16:47 22.90486 113.23094 20252 ft 428 kts 166°
2026-05-06 16:47 22.87640 113.24065 20550 ft 430 kts 166°
2026-05-06 16:47 22.84779 113.25048 20825 ft 432 kts 165°
2026-05-06 16:48 22.81906 113.26039 21101 ft 434 kts 165°
2026-05-06 16:48 22.79056 113.27025 21379 ft 437 kts 165°
2026-05-06 16:48 22.76157 113.28028 21657 ft 439 kts 165°
2026-05-06 16:48 22.73245 113.29036 21930 ft 441 kts 165°
2026-05-06 16:49 22.70316 113.30050 22210 ft 443 kts 165°
2026-05-06 16:49 22.67375 113.31068 22499 ft 445 kts 165°
2026-05-06 16:49 22.64424 113.32088 22775 ft 447 kts 165°
2026-05-06 16:49 22.61455 113.33118 23040 ft 449 kts 165°
2026-05-06 16:50 22.58474 113.34154 23301 ft 451 kts 165°
2026-05-06 16:50 22.55478 113.35190 23573 ft 452 kts 165°
2026-05-06 16:50 22.52472 113.36226 23795 ft 455 kts 165°
2026-05-06 16:50 22.49450 113.37266 24005 ft 457 kts 165°
2026-05-06 16:51 22.46412 113.38312 24217 ft 459 kts 165°
2026-05-06 16:51 22.43368 113.39358 24440 ft 461 kts 165°
2026-05-06 16:51 22.40309 113.40412 24678 ft 463 kts 165°
2026-05-06 16:51 22.37231 113.41472 24882 ft 465 kts 165°
2026-05-06 16:52 22.34189 113.42523 24951 ft 453 kts 165°
2026-05-06 16:52 22.31226 113.43549 24960 ft 444 kts 165°
2026-05-06 16:52 22.28284 113.44565 24957 ft 443 kts 165°
2026-05-06 16:52 22.25351 113.45574 24962 ft 443 kts 165°
2026-05-06 16:53 22.22419 113.46581 24963 ft 443 kts 165°
2026-05-06 16:53 22.19483 113.47609 24966 ft 443 kts 165°
2026-05-06 16:53 22.16555 113.48673 24965 ft 443 kts 164°
2026-05-06 16:53 22.13638 113.49751 24967 ft 443 kts 164°
2026-05-06 16:54 22.10720 113.50834 24967 ft 443 kts 164°
2026-05-06 16:54 22.07801 113.51915 24965 ft 443 kts 164°
2026-05-06 16:54 22.04882 113.52992 24964 ft 443 kts 164°
2026-05-06 16:54 22.01964 113.54064 24962 ft 443 kts 164°
2026-05-06 16:55 21.99067 113.55225 24960 ft 446 kts 158°
2026-05-06 16:55 21.96290 113.56714 24954 ft 447 kts 155°
2026-05-06 16:55 21.93553 113.58300 24956 ft 447 kts 154°
2026-05-06 16:55 21.90845 113.59934 24957 ft 446 kts 153°
2026-05-06 16:56 21.88147 113.61592 24953 ft 446 kts 153°
2026-05-06 16:56 21.85457 113.63254 24953 ft 446 kts 153°
2026-05-06 16:56 21.82762 113.64916 24951 ft 446 kts 153°
2026-05-06 16:56 21.80066 113.66572 24949 ft 446 kts 153°
2026-05-06 16:57 21.77368 113.68223 24949 ft 446 kts 153°
2026-05-06 16:57 21.74670 113.69870 24949 ft 446 kts 153°
2026-05-06 16:57 21.71969 113.71515 24949 ft 446 kts 153°
2026-05-06 16:57 21.69264 113.73160 24946 ft 446 kts 153°
2026-05-06 16:58 21.66603 113.74778 24947 ft 446 kts 153°
2026-05-06 16:58 21.63900 113.76421 24951 ft 445 kts 153°
2026-05-06 16:58 21.61228 113.78098 24945 ft 446 kts 149°
2026-05-06 16:58 21.58810 113.80187 24951 ft 448 kts 136°
2026-05-06 16:59 21.56843 113.82785 24959 ft 450 kts 126°
2026-05-06 16:59 21.55128 113.85601 24952 ft 451 kts 123°
2026-05-06 16:59 21.53525 113.88499 24957 ft 452 kts 121°
2026-05-06 16:59 21.51974 113.91436 24957 ft 452 kts 121°
2026-05-06 17:00 21.50438 113.94381 24958 ft 452 kts 121°
2026-05-06 17:00 21.48897 113.97325 24960 ft 452 kts 121°
2026-05-06 17:00 21.47346 114.00259 24960 ft 452 kts 121°
2026-05-06 17:00 21.45782 114.03191 24960 ft 452 kts 121°
2026-05-06 17:01 21.44214 114.06111 24959 ft 452 kts 121°
2026-05-06 17:01 21.42639 114.09031 24957 ft 452 kts 121°
2026-05-06 17:01 21.41064 114.11946 24959 ft 451 kts 121°
2026-05-06 17:01 21.39490 114.14855 24958 ft 451 kts 121°
2026-05-06 17:02 21.37914 114.17767 24952 ft 451 kts 121°
2026-05-06 17:02 21.36338 114.20680 24952 ft 451 kts 121°
2026-05-06 17:02 21.34762 114.23590 24952 ft 451 kts 121°
2026-05-06 17:02 21.33188 114.26497 24952 ft 451 kts 121°
2026-05-06 17:03 21.31633 114.29367 24953 ft 451 kts 121°
2026-05-06 17:03 21.30036 114.32314 24952 ft 451 kts 121°
2026-05-06 17:03 21.28482 114.35180 24952 ft 451 kts 122°
2026-05-06 17:03 21.26885 114.38123 24952 ft 451 kts 122°
2026-05-06 17:04 21.25308 114.41027 24951 ft 451 kts 122°
2026-05-06 17:04 21.23730 114.43934 24952 ft 451 kts 122°
2026-05-06 17:04 21.22175 114.46796 24947 ft 451 kts 122°
2026-05-06 17:04 21.20597 114.49697 24953 ft 450 kts 122°
2026-05-06 17:05 21.19019 114.52598 24949 ft 450 kts 122°
2026-05-06 17:05 21.17443 114.55493 24949 ft 450 kts 122°
2026-05-06 17:05 21.15865 114.58390 24950 ft 450 kts 122°
2026-05-06 17:05 21.14287 114.61286 24949 ft 450 kts 122°
2026-05-06 17:06 21.12708 114.64183 24953 ft 450 kts 122°
2026-05-06 17:06 21.11128 114.67079 24952 ft 450 kts 122°
2026-05-06 17:06 21.09548 114.69973 24952 ft 450 kts 122°
2026-05-06 17:06 21.07968 114.72867 24952 ft 450 kts 122°
2026-05-06 17:07 21.06389 114.75757 24949 ft 450 kts 122°
2026-05-06 17:07 21.04808 114.78649 24949 ft 450 kts 122°
2026-05-06 17:07 21.03228 114.81540 24949 ft 450 kts 122°
2026-05-06 17:07 21.01646 114.84431 24949 ft 450 kts 122°
2026-05-06 17:08 21.00065 114.87318 24952 ft 450 kts 122°
2026-05-06 17:08 20.98481 114.90210 24952 ft 450 kts 122°
2026-05-06 17:08 20.96899 114.93096 24952 ft 450 kts 122°
2026-05-06 17:08 20.95317 114.95983 24952 ft 450 kts 122°
2026-05-06 17:09 20.93731 114.98873 24949 ft 450 kts 122°
2026-05-06 17:09 20.92148 115.01757 24948 ft 450 kts 122°
2026-05-06 17:09 20.90564 115.04643 24949 ft 449 kts 122°
2026-05-06 17:09 20.88983 115.07521 24949 ft 449 kts 122°
2026-05-06 17:10 20.87400 115.10399 24953 ft 449 kts 122°
2026-05-06 17:10 20.85819 115.13274 24952 ft 449 kts 122°
2026-05-06 17:10 20.84256 115.16114 24952 ft 449 kts 122°
2026-05-06 17:10 20.82673 115.18988 24952 ft 449 kts 122°
2026-05-06 17:11 20.81090 115.21862 24949 ft 449 kts 122°
2026-05-06 17:11 20.79506 115.24738 24947 ft 449 kts 122°
2026-05-06 17:11 20.77922 115.27609 24949 ft 448 kts 122°
2026-05-06 17:11 20.76338 115.30481 24949 ft 448 kts 122°
2026-05-06 17:12 20.74754 115.33349 24949 ft 448 kts 122°
2026-05-06 17:12 20.73171 115.36218 24950 ft 448 kts 122°
2026-05-06 17:12 20.71591 115.39077 24947 ft 447 kts 122°
2026-05-06 17:12 20.70010 115.41937 24944 ft 447 kts 122°
2026-05-06 17:13 20.68430 115.44793 24945 ft 447 kts 122°
2026-05-06 17:13 20.66847 115.47652 24944 ft 447 kts 122°
2026-05-06 17:13 20.65266 115.50507 24943 ft 447 kts 122°
2026-05-06 17:13 20.63684 115.53363 24944 ft 447 kts 122°
2026-05-06 17:14 20.62102 115.56218 24943 ft 447 kts 122°
2026-05-06 17:14 20.60520 115.59070 24944 ft 447 kts 122°
2026-05-06 17:14 20.58936 115.61927 24944 ft 447 kts 122°
2026-05-06 17:14 20.57354 115.64777 24942 ft 447 kts 122°
2026-05-06 17:15 20.55771 115.67628 24943 ft 446 kts 122°
2026-05-06 17:15 20.54188 115.70476 24941 ft 446 kts 122°
2026-05-06 17:15 20.52628 115.73283 24941 ft 446 kts 122°
2026-05-06 17:15 20.51045 115.76129 24941 ft 446 kts 122°
2026-05-06 17:16 20.49462 115.78974 24942 ft 446 kts 122°
2026-05-06 17:16 20.47880 115.81814 24941 ft 446 kts 122°
2026-05-06 17:16 20.46296 115.84658 24941 ft 446 kts 122°
2026-05-06 17:16 20.44713 115.87498 24941 ft 446 kts 122°
2026-05-06 17:17 20.43130 115.90337 24939 ft 446 kts 122°
2026-05-06 17:17 20.41545 115.93180 24938 ft 446 kts 122°
2026-05-06 17:17 20.39958 115.96022 24937 ft 446 kts 122°
2026-05-06 17:17 20.38374 115.98860 24938 ft 446 kts 122°
2026-05-06 17:18 20.36787 116.01700 24932 ft 445 kts 122°
2026-05-06 17:18 20.35202 116.04536 24933 ft 445 kts 122°
2026-05-06 17:18 20.33618 116.07368 24933 ft 445 kts 122°
2026-05-06 17:18 20.32032 116.10203 24933 ft 445 kts 122°
2026-05-06 17:19 20.30446 116.13036 24936 ft 445 kts 122°
2026-05-06 17:19 20.28859 116.15869 24936 ft 445 kts 122°
2026-05-06 17:19 20.27274 116.18699 24936 ft 445 kts 122°
2026-05-06 17:19 20.25686 116.21531 24936 ft 445 kts 122°
2026-05-06 17:20 20.24102 116.24356 24933 ft 445 kts 122°
2026-05-06 17:20 20.22534 116.27150 24933 ft 445 kts 122°
2026-05-06 17:20 20.20947 116.29976 24930 ft 445 kts 122°
2026-05-06 17:20 20.19356 116.32809 24930 ft 445 kts 122°
2026-05-06 17:21 20.17769 116.35633 24932 ft 445 kts 122°
2026-05-06 17:21 20.16180 116.38459 24933 ft 445 kts 122°
2026-05-06 17:21 20.14590 116.41285 24933 ft 445 kts 122°
2026-05-06 17:21 20.13002 116.44108 24933 ft 445 kts 122°
2026-05-06 17:22 20.11410 116.46935 24934 ft 445 kts 122°
2026-05-06 17:22 20.09820 116.49757 24933 ft 445 kts 122°
2026-05-06 17:22 20.08230 116.52579 24933 ft 445 kts 122°
2026-05-06 17:22 20.06637 116.55404 24933 ft 445 kts 122°
2026-05-06 17:23 20.05047 116.58222 24929 ft 445 kts 122°
2026-05-06 17:23 20.03454 116.61044 24928 ft 445 kts 122°
2026-05-06 17:23 20.01862 116.63865 24928 ft 445 kts 122°
2026-05-06 17:23 20.00213 116.66587 24926 ft 443 kts 129°
2026-05-06 17:24 19.98266 116.69125 24932 ft 442 kts 132°
2026-05-06 17:24 19.96244 116.71587 24930 ft 442 kts 134°
2026-05-06 17:24 19.94179 116.74011 24930 ft 442 kts 134°
2026-05-06 17:24 19.92099 116.76411 24930 ft 442 kts 135°
2026-05-06 17:25 19.90011 116.78806 24927 ft 442 kts 135°
2026-05-06 17:25 19.87924 116.81202 24928 ft 442 kts 134°
2026-05-06 17:25 19.85838 116.83603 24928 ft 442 kts 134°
2026-05-06 17:25 19.83755 116.86007 24928 ft 442 kts 134°
2026-05-06 17:26 19.82377 116.87600 24927 ft 442 kts 134°
2026-05-06 17:26 19.79595 116.90819 24925 ft 442 kts 134°
2026-05-06 17:26 19.78219 116.92411 24925 ft 442 kts 134°
2026-05-06 17:26 19.76144 116.94812 24925 ft 442 kts 134°
2026-05-06 17:27 19.74065 116.97218 24926 ft 442 kts 134°
2026-05-06 17:27 19.71987 116.99620 24922 ft 442 kts 134°
2026-05-06 17:27 19.69906 117.02025 24922 ft 442 kts 134°
2026-05-06 17:27 19.67826 117.04427 24922 ft 442 kts 134°
2026-05-06 17:28 19.65750 117.06824 24923 ft 442 kts 134°
2026-05-06 17:28 19.63666 117.09229 24925 ft 442 kts 134°
2026-05-06 17:28 19.61588 117.11626 24925 ft 442 kts 134°
2026-05-06 17:28 19.59509 117.14022 24920 ft 441 kts 134°
2026-05-06 17:29 19.57429 117.16419 24923 ft 441 kts 134°
2026-05-06 17:29 19.55352 117.18812 24922 ft 440 kts 134°
2026-05-06 17:29 19.53306 117.21167 24923 ft 440 kts 134°
2026-05-06 17:29 19.51233 117.23554 24922 ft 440 kts 134°
2026-05-06 17:30 19.49160 117.25939 24924 ft 440 kts 134°
2026-05-06 17:30 19.47084 117.28327 24922 ft 440 kts 134°
2026-05-06 17:30 19.45008 117.30713 24922 ft 440 kts 134°
2026-05-06 17:30 19.42933 117.33098 24919 ft 440 kts 134°
2026-05-06 17:31 19.40858 117.35482 24919 ft 440 kts 134°
2026-05-06 17:31 19.38784 117.37864 24917 ft 440 kts 134°
2026-05-06 17:31 19.36708 117.40246 24916 ft 440 kts 134°
2026-05-06 17:31 19.34630 117.42630 24919 ft 440 kts 134°
2026-05-06 17:32 19.32556 117.45009 24917 ft 440 kts 134°
2026-05-06 17:32 19.30481 117.47387 24917 ft 440 kts 134°
2026-05-06 17:32 19.28402 117.49769 24917 ft 440 kts 134°
2026-05-06 17:32 19.26323 117.52150 24917 ft 441 kts 134°
2026-05-06 17:33 19.24242 117.54533 24916 ft 441 kts 134°
2026-05-06 17:33 19.22159 117.56917 24913 ft 441 kts 134°
2026-05-06 17:33 19.20075 117.59301 24916 ft 441 kts 134°
2026-05-06 17:33 19.17994 117.61682 24913 ft 441 kts 134°
2026-05-06 17:34 19.15910 117.64064 24914 ft 440 kts 134°
2026-05-06 17:34 19.13831 117.66440 24914 ft 440 kts 134°
2026-05-06 17:34 19.11749 117.68819 24914 ft 441 kts 134°
2026-05-06 17:34 19.09665 117.71199 24914 ft 440 kts 134°
2026-05-06 17:35 19.07585 117.73573 24911 ft 440 kts 134°
2026-05-06 17:35 19.05502 117.75949 24911 ft 440 kts 134°
2026-05-06 17:35 19.03421 117.78323 24911 ft 441 kts 134°
2026-05-06 17:36 18.99283 117.83040 24914 ft 440 kts 134°
2026-05-06 17:36 18.97201 117.85411 24911 ft 440 kts 134°
2026-05-06 17:36 18.95091 117.87813 24911 ft 440 kts 134°
2026-05-06 17:36 18.93036 117.90152 24911 ft 440 kts 134°
2026-05-06 17:37 18.90952 117.92522 24908 ft 440 kts 134°
2026-05-06 17:37 18.88870 117.94890 24908 ft 440 kts 134°
2026-05-06 17:37 18.86787 117.97258 24909 ft 440 kts 134°
2026-05-06 17:37 18.84702 117.99627 24907 ft 440 kts 134°
2026-05-06 17:38 18.82619 118.01992 24911 ft 440 kts 134°
2026-05-06 17:38 18.80535 118.04360 24911 ft 440 kts 134°
2026-05-06 17:38 18.78449 118.06728 24913 ft 440 kts 134°
2026-05-06 17:38 18.76363 118.09094 24910 ft 440 kts 134°
2026-05-06 17:39 18.74275 118.11462 24908 ft 440 kts 134°
2026-05-06 17:39 18.72189 118.13827 24909 ft 440 kts 134°
2026-05-06 17:39 18.70102 118.16191 24906 ft 441 kts 134°
2026-05-06 17:39 18.68013 118.18558 24905 ft 441 kts 134°
2026-05-06 17:40 18.65923 118.20925 24906 ft 440 kts 134°
2026-05-06 17:40 18.63838 118.23285 24906 ft 440 kts 134°
2026-05-06 17:40 18.61749 118.25649 24905 ft 440 kts 134°
2026-05-06 17:40 18.59660 118.28012 24906 ft 441 kts 134°
2026-05-06 17:41 18.57571 118.30374 24907 ft 440 kts 134°
2026-05-06 17:41 18.55482 118.32735 24900 ft 440 kts 134°
2026-05-06 17:41 18.53395 118.35092 24900 ft 440 kts 134°
2026-05-06 17:41 18.51303 118.37455 24897 ft 440 kts 134°
2026-05-06 17:42 18.49243 118.39780 24903 ft 441 kts 134°
2026-05-06 17:42 18.47151 118.42141 24902 ft 441 kts 134°
2026-05-06 17:42 18.45058 118.44502 24903 ft 441 kts 134°
2026-05-06 17:42 18.42964 118.46863 24903 ft 441 kts 134°
2026-05-06 17:43 18.40872 118.49221 24901 ft 441 kts 134°
2026-05-06 17:43 18.38779 118.51579 24900 ft 440 kts 134°
2026-05-06 17:43 18.36686 118.53936 24902 ft 441 kts 134°
2026-05-06 17:43 18.34590 118.56297 24898 ft 441 kts 134°
2026-05-06 17:44 18.32495 118.58654 24898 ft 441 kts 134°
2026-05-06 17:44 18.30401 118.61010 24900 ft 440 kts 134°